Weather in Orekhovka

Russia / Stavropol Krai     45°02′18″N   42°56′35″E
temp.,
°C
wind,
m/s
gust,
m/s
humid.,
%
clouds,
%
prec.,
mm/h
press.,
hPa
HPBL,
m
17 may, tue
tue1700:00+9w39815 0.0 1018168
03:00+9wsw369081 0.0 1018116
06:00+11wsw38846 0.0 1017277
09:00+14w576799 0.0 1016927
12:00+16wsw796083 0.2 10151431
15:00+16wnw81161100 0.4 10141415
18:00+14w6127935 0.3 1014807
21:00+11w412886 0.4 1016398
18 may, wed
wed1800:00+9wsw379214 0.0 1016158
03:00+9sw339267 0.0 101542
06:00+11ssw238384 0.0 101587
09:00+16s336024 0.0 1013808
12:00+20sse445085 0.0 10111729
15:00+20sse555179 0.0 10101790
18:00+19se476697 0.0 1009340
21:00+13ne2282100 0.0 101131
19 may, thu
thu1900:00+10nne11945 0.0 101110
03:00+10wnw489956 0.1 1012242
06:00+11wnw7138795 0.1 1014724
09:00+11w91372100 0.1 1017974
12:00+11wnw81271100 0.0 10171042
15:00+12w61173100 0.4 10181233
18:00+11w91677100 0.3 10181303
21:00+8wnw11198093 0.4 10201025
20 may, fri
fri2000:00+9wnw9168053 0.0 1021865
03:00+8w815886 0.0 1022573
06:00+8w7148649 0.1 1023601
09:00+12w91276100 0.5 10231054
12:00+15wnw10125886 0.6 10221884
15:00+14wnw912727 1.9 10221382
18:00+13wnw8128085 1.3 1023891
21:00+10w410905 1.6 1024202
21 may, sat
sat2100:00+9wsw4109093 0.0 1024228
03:00+8wsw410916 0.0 1023227
06:00+9wsw398714 0.0 1022282
09:00+15w57678 0.0 1021746
12:00+18w565346 0.0 10181750
15:00+20w575226 0.0 10161824
18:00+18w476619 0.0 1015498
21:00+13wsw3382100 0.0 101526